Regional Weather Roundup
Issued by NWS

Home | Current Version | Previous Version | Text Only | Print | Product List | Glossary On
Versions: 1 2 3 4 5 6 7 8 9 10 11 12 13 14 15 16 17 18 19 20 21 22 23 24 25 26 27 28 29 30 31 32 33 34 35 36 37 38 39 40 41 42 43 44 45 46 47 48 49 50
000
ASUS44 KMEG 310010
RWRTN
TENNESSEE HOURLY STATE WEATHER ROUNDUP
NATIONAL WEATHER SERVICE MEMPHIS TN
700 PM CDT SAT AUG 30 2014

TNZ002-004-019-021-049-052-054-088>092-310100-
WEST TENNESSEE

CITY           SKY/WX    TMP DP  RH WIND       PRES   REMARKS
MEMPHIS INTL   LGT RAIN  77  74  90 SE8       30.01F
NWS MEMPHIS      N/A     75 N/A N/A MISG        N/A
JACKSON        CLOUDY    76  71  85 S7        30.02S
DYERSBURG      CLOUDY    75  64  69 CALM      30.01S
UNION CITY     MOCLDY    73  73 100 SE3       30.00S
PARIS          PTCLDY    73  72  94 CALM      30.03F
HUNTINGDON     CLOUDY    73  72  97 S3        30.02
LEXINGTON      MOCLDY    75  73  94 SW6       30.03S
SAVANNAH       CLOUDY    73  73 100 SW10      30.07R
$$

TNZ008-025-027-028-033-062-065-066-310100-
NORTH MIDDLE TENNESSEE

CITY           SKY/WX    TMP DP  RH WIND       PRES   REMARKS
NASHVILLE      TSTM      75  73  94 CALM      30.06R FOG
DICKSON        CLOUDY    75  72  88 CALM      30.05R
PORTLAND       CLOUDY    73  72  94 CALM      30.05R
CLARKSVILLE    CLOUDY    77  72  84 CALM      30.04S
LEBANON        CLOUDY    75  73  93 CALM      30.05R
SMYRNA         CLOUDY    73  73 100 W3        30.07R FOG
MURFREESBORO   CLOUDY    74  72  93 CALM      30.06
COOKEVILLE     PTCLDY    73  72  94 CALM      30.08S
LIVINGSTON     CLOUDY    74  72  93 W16G28    30.10R
GALLATIN       CLOUDY    76  76 100 SE3       30.06S
CROSSVILLE     CLOUDY    78  69  73 S3        30.13R
$$

TNZ061-075-076-078-094-096-097-310100-
SOUTH MIDDLE TENNESSEE

CITY           SKY/WX    TMP DP  RH WIND       PRES   REMARKS
LEWISBURG      CLOUDY    73  71  93 S9        30.08R
FAYETTEVILLE   MOCLDY    72  72 100 SW21G28   30.13R
TULLAHOMA      CLOUDY    75  73  94 SW3       30.10R
WINCHESTER     MOCLDY    75  72  88 S3        30.08R
MCMINNVILLE    PTCLDY    75  75 100 NE3       30.09R
COLUMBIA         N/A     73  73 100 CALM      30.06R
SHELBYVILLE    CLOUDY    73  73 100 W5        30.10R
$$

TNZ017-018-042-046-047-310100-
NORTHEAST TENNESSEE

CITY           SKY/WX    TMP DP  RH WIND       PRES   REMARKS
TRI CITIES     CLOUDY    81  62  52 S5        30.12R
ELIZABETHTON   PTCLDY    73  64  73 CALM      30.14R
$$

TNZ012-013-036-069-073-074-310100-
CENTRAL EAST TENNESSEE

CITY           SKY/WX    TMP DP  RH WIND       PRES   REMARKS
KNOXVILLE      CLOUDY    78  74  87 NE3       30.07R
OAK RIDGE      CLOUDY    79  73  82 CALM      30.09S
GATLINBURG     CLOUDY    75  72  88 CALM      30.08R
MORRISTOWN     CLEAR     77  72  83 CALM      30.11R
$$

TNZ083-085-099-310100-
SOUTHEAST TENNESSEE

CITY           SKY/WX    TMP DP  RH WIND       PRES   REMARKS
CHATTANOOGA    LGT RAIN  74  69  85 CALM      30.08R
$$

SKY/WX REPORTED AS FAIR MEANS FEW OR NO CLOUDS BELOW
12 THOUSAND FEET.




USA.gov is the U.S. government's official web portal to all federal, state and local government web resources and services.